Location: Lombard
(41.8800°N, 88.0080°W)
Time: 19:40:50
(UTC-05:00)

Transit 2A - Pass Details

Date: 15 February 2023
Orbit: 591 x 964 km, 66.7° (Epoch: 29 March)

Event Time Altitude Azimuth Distance (km) Brightness Sun altitude
Rises 00:37:25 0° 314° (NW) 3,597 - -60.1°
Reaches altitude 10° 00:40:45 10° 296° (WNW) 2,682 - -59.9°
Maximum altitude 00:44:48 18° 256° (WSW) 2,168 - -59.7°
Drops below altitude 10° 00:48:52 10° 216° (SW) 2,691 - -59.4°
Sets 00:52:15 0° 198° (SSW) 3,615 - -59.2°
